Time,TemperatureF,DewpointF,PressureIn,WindDirection,WindDirectionDegrees,WindSpeedMPH,WindSpeedGustMPH,Humidity,HourlyPrecipIn,Conditions,Clouds,dailyrainin,SoftwareType,DateUTC
2013-05-18 00:03:00,47.3,36.5,30.35,SSW,202,0.2,0.2,66,0.00,,,0.00,SKWS110,2013-05-18 04:03:00,
2013-05-18 00:06:00,47.1,36.7,30.35,South,180,0.0,0.0,67,0.00,,,0.00,SKWS110,2013-05-18 04:06:00,
2013-05-18 00:10:00,46.8,36.4,30.35,NE,45,0.0,0.0,67,0.00,,,0.00,SKWS110,2013-05-18 04:10:00,
2013-05-18 00:13:00,46.8,36.8,30.35,NNW,337,0.2,1.3,68,0.00,,,0.00,SKWS110,2013-05-18 04:13:00,
2013-05-18 00:16:00,46.6,37.3,30.35,NNW,337,0.4,1.3,70,0.00,,,0.00,SKWS110,2013-05-18 04:16:00,
2013-05-18 00:19:00,46.4,37.2,30.35,NW,315,0.4,1.3,70,0.00,,,0.00,SKWS110,2013-05-18 04:19:00,
2013-05-18 00:22:00,46.2,37.0,30.35,NW,315,0.2,1.3,70,0.00,,,0.00,SKWS110,2013-05-18 04:22:00,
2013-05-18 00:25:00,46.2,37.0,30.35,WNW,292,0.0,0.0,70,0.00,,,0.00,SKWS110,2013-05-18 04:25:00,
2013-05-18 00:28:00,46.2,37.0,30.35,WNW,292,0.0,0.0,70,0.00,,,0.00,SKWS110,2013-05-18 04:28:00,
2013-05-18 00:31:00,46.2,37.0,30.35,South,180,0.0,0.0,70,0.00,,,0.00,SKWS110,2013-05-18 04:31:00,
2013-05-18 00:37:00,45.7,36.8,30.35,South,180,0.9,2.7,71,0.00,,,0.00,SKWS110,2013-05-18 04:37:00,
2013-05-18 00:40:00,45.7,36.8,30.35,South,180,2.9,4.0,71,0.00,,,0.00,SKWS110,2013-05-18 04:40:00,
2013-05-18 00:43:00,45.7,36.8,30.35,SSE,157,2.2,2.7,71,0.00,,,0.00,SKWS110,2013-05-18 04:43:00,
2013-05-18 00:49:00,45.9,37.0,30.35,South,180,2.5,2.7,71,0.00,,,0.00,SKWS110,2013-05-18 04:49:00,
2013-05-18 00:55:00,46.2,37.3,30.35,SSE,157,1.6,2.7,71,0.00,,,0.00,SKWS110,2013-05-18 04:55:00,
2013-05-18 00:58:00,46.2,37.3,30.34,South,180,2.2,2.7,71,0.00,,,0.00,SKWS110,2013-05-18 04:58:00,
2013-05-18 01:01:00,46.2,37.3,30.34,SSE,157,1.6,2.7,71,0.00,,,0.00,SKWS110,2013-05-18 05:01:00,
2013-05-18 01:04:00,46.4,37.5,30.35,South,180,2.7,2.7,71,0.00,,,0.00,SKWS110,2013-05-18 05:04:00,
2013-05-18 01:10:00,46.4,37.5,30.35,South,180,3.8,4.0,71,0.00,,,0.00,SKWS110,2013-05-18 05:10:00,
2013-05-18 01:13:00,46.8,38.2,30.34,South,180,3.4,5.4,72,0.00,,,0.00,SKWS110,2013-05-18 05:13:00,
2013-05-18 01:16:00,47.1,38.6,30.35,South,180,3.4,5.4,72,0.00,,,0.00,SKWS110,2013-05-18 05:16:00,
2013-05-18 01:19:00,47.5,39.3,30.35,SSW,202,2.9,4.0,73,0.00,,,0.00,SKWS110,2013-05-18 05:19:00,
2013-05-18 01:22:00,48.0,39.8,30.35,SSW,202,2.5,6.9,73,0.00,,,0.00,SKWS110,2013-05-18 05:22:00,
2013-05-18 01:26:00,48.2,40.0,30.34,South,180,3.4,5.4,73,0.00,,,0.00,SKWS110,2013-05-18 05:26:00,
2013-05-18 01:29:00,48.4,40.1,30.34,SSE,157,1.8,4.0,73,0.00,,,0.00,SKWS110,2013-05-18 05:29:00,
2013-05-18 01:35:00,48.2,39.6,30.35,South,180,1.6,2.7,72,0.00,,,0.00,SKWS110,2013-05-18 05:35:00,
2013-05-18 01:38:00,48.2,39.6,30.35,SSE,157,2.0,4.0,72,0.00,,,0.00,SKWS110,2013-05-18 05:38:00,
2013-05-18 01:41:00,48.0,39.1,30.34,SE,135,2.5,4.0,71,0.00,,,0.00,SKWS110,2013-05-18 05:41:00,
2013-05-18 01:44:00,47.8,38.9,30.34,SSE,157,2.2,2.7,71,0.00,,,0.00,SKWS110,2013-05-18 05:44:00,
2013-05-18 01:47:00,47.7,38.7,30.34,SE,135,2.7,4.0,71,0.00,,,0.00,SKWS110,2013-05-18 05:47:00,
2013-05-18 01:53:00,47.5,38.5,30.35,South,180,2.7,4.0,71,0.00,,,0.00,SKWS110,2013-05-18 05:53:00,
2013-05-18 01:56:00,47.5,38.9,30.34,SSE,157,1.6,4.0,72,0.00,,,0.00,SKWS110,2013-05-18 05:56:00,
2013-05-18 01:59:00,47.5,38.9,30.35,SE,135,0.2,1.3,72,0.00,,,0.00,SKWS110,2013-05-18 05:59:00,
2013-05-18 02:02:00,47.5,38.9,30.35,South,180,1.3,2.7,72,0.00,,,0.00,SKWS110,2013-05-18 06:02:00,
2013-05-18 02:05:00,47.5,38.9,30.35,SE,135,0.9,2.7,72,0.00,,,0.00,SKWS110,2013-05-18 06:05:00,
2013-05-18 02:08:00,47.3,38.7,30.35,SE,135,0.2,1.3,72,0.00,,,0.00,SKWS110,2013-05-18 06:08:00,
2013-05-18 02:14:00,47.1,38.6,30.35,WSW,247,0.4,1.3,72,0.00,,,0.00,SKWS110,2013-05-18 06:14:00,
2013-05-18 02:17:00,47.1,38.6,30.35,WSW,247,1.1,2.7,72,0.00,,,0.00,SKWS110,2013-05-18 06:17:00,
2013-05-18 02:20:00,47.1,38.9,30.35,SW,225,0.4,1.3,73,0.00,,,0.00,SKWS110,2013-05-18 06:20:00,
2013-05-18 02:23:00,47.1,38.9,30.34,SSW,202,0.4,1.3,73,0.00,,,0.00,SKWS110,2013-05-18 06:23:00,
2013-05-18 02:29:00,47.1,39.6,30.35,SSW,202,3.6,4.0,75,0.00,,,0.00,SKWS110,2013-05-18 06:29:00,
2013-05-18 02:32:00,47.5,40.0,30.34,SSW,202,3.4,4.0,75,0.00,,,0.00,SKWS110,2013-05-18 06:32:00,
2013-05-18 02:36:00,47.7,40.1,30.35,SSW,202,2.5,4.0,75,0.00,,,0.00,SKWS110,2013-05-18 06:36:00,
2013-05-18 02:39:00,47.8,40.7,30.34,SSW,202,1.8,2.7,76,0.00,,,0.00,SKWS110,2013-05-18 06:39:00,
2013-05-18 02:42:00,47.8,40.7,30.35,SSW,202,2.0,4.0,76,0.00,,,0.00,SKWS110,2013-05-18 06:42:00,
2013-05-18 02:45:00,48.0,40.8,30.35,South,180,1.6,2.7,76,0.00,,,0.00,SKWS110,2013-05-18 06:45:00,
2013-05-18 02:48:00,48.0,40.8,30.35,SSW,202,2.0,2.7,76,0.00,,,0.00,SKWS110,2013-05-18 06:48:00,
2013-05-18 02:51:00,47.8,40.3,30.34,SSW,202,2.0,4.0,75,0.00,,,0.00,SKWS110,2013-05-18 06:51:00,
2013-05-18 02:57:00,47.8,40.7,30.34,SSW,202,2.7,4.0,76,0.00,,,0.00,SKWS110,2013-05-18 06:57:00,
2013-05-18 03:00:00,47.7,40.5,30.34,SSW,202,5.4,6.9,76,0.00,,,0.00,SKWS110,2013-05-18 07:00:00,
2013-05-18 03:03:00,47.7,40.5,30.35,SSW,202,0.9,1.3,76,0.00,,,0.00,SKWS110,2013-05-18 07:03:00,
2013-05-18 03:09:00,47.7,40.8,30.34,South,180,1.8,2.7,77,0.00,,,0.00,SKWS110,2013-05-18 07:09:00,
2013-05-18 03:12:00,47.7,40.8,30.34,SSW,202,2.0,4.0,77,0.00,,,0.00,SKWS110,2013-05-18 07:12:00,
2013-05-18 03:15:00,47.7,40.8,30.35,SSW,202,1.3,2.7,77,0.00,,,0.00,SKWS110,2013-05-18 07:15:00,
2013-05-18 03:18:00,47.5,40.6,30.35,SSW,202,2.5,2.7,77,0.00,,,0.00,SKWS110,2013-05-18 07:18:00,
2013-05-18 03:21:00,47.5,40.6,30.35,SSW,202,2.9,2.9,77,0.00,,,0.00,SKWS110,2013-05-18 07:21:00,
2013-05-18 03:24:00,47.5,41.0,30.35,WSW,247,0.4,1.3,78,0.00,,,0.00,SKWS110,2013-05-18 07:24:00,
2013-05-18 03:27:00,47.5,41.0,30.35,SW,225,1.1,1.3,78,0.00,,,0.00,SKWS110,2013-05-18 07:27:00,
2013-05-18 03:30:00,47.5,41.0,30.35,SW,225,0.4,1.3,78,0.00,,,0.00,SKWS110,2013-05-18 07:30:00,
2013-05-18 03:33:00,47.5,41.0,30.35,SW,225,1.6,1.6,78,0.00,,,0.00,SKWS110,2013-05-18 07:33:00,
2013-05-18 03:39:00,47.3,40.8,30.35,SSW,202,1.8,2.7,78,0.00,,,0.00,SKWS110,2013-05-18 07:39:00,
2013-05-18 03:42:00,47.3,40.8,30.35,SSW,202,2.5,2.7,78,0.00,,,0.00,SKWS110,2013-05-18 07:42:00,
2013-05-18 03:48:00,47.1,40.6,30.35,SW,225,1.1,4.0,78,0.00,,,0.00,SKWS110,2013-05-18 07:48:00,
2013-05-18 03:55:00,46.9,40.4,30.35,SSW,202,1.1,2.7,78,0.00,,,0.00,SKWS110,2013-05-18 07:55:00,
2013-05-18 03:58:00,46.9,40.1,30.35,SSW,202,2.2,2.7,77,0.00,,,0.00,SKWS110,2013-05-18 07:58:00,
2013-05-18 04:01:00,46.9,40.1,30.35,SSW,202,0.2,1.3,77,0.00,,,0.00,SKWS110,2013-05-18 08:01:00,
2013-05-18 04:07:00,46.6,39.8,30.36,West,270,0.0,1.3,77,0.00,,,0.00,SKWS110,2013-05-18 08:07:00,
2013-05-18 04:10:00,46.4,39.6,30.36,West,270,0.0,0.0,77,0.00,,,0.00,SKWS110,2013-05-18 08:10:00,
2013-05-18 04:13:00,46.2,39.7,30.36,WSW,247,0.2,1.3,78,0.00,,,0.00,SKWS110,2013-05-18 08:13:00,
2013-05-18 04:16:00,46.0,39.6,30.36,WSW,247,0.4,1.3,78,0.00,,,0.00,SKWS110,2013-05-18 08:16:00,
2013-05-18 04:19:00,45.9,39.4,30.36,SW,225,0.2,1.3,78,0.00,,,0.00,SKWS110,2013-05-18 08:19:00,
2013-05-18 04:25:00,45.5,38.7,30.36,WSW,247,0.0,0.0,77,0.00,,,0.00,SKWS110,2013-05-18 08:25:00,
2013-05-18 04:28:00,45.3,38.2,30.36,WNW,292,0.0,0.0,76,0.00,,,0.00,SKWS110,2013-05-18 08:28:00,
2013-05-18 04:31:00,45.0,37.9,30.36,SW,225,0.2,0.2,76,0.00,,,0.00,SKWS110,2013-05-18 08:31:00,
2013-05-18 04:34:00,45.0,38.2,30.36,SW,225,0.0,0.0,77,0.00,,,0.00,SKWS110,2013-05-18 08:34:00,
2013-05-18 04:37:00,44.8,38.0,30.36,SW,225,0.0,0.0,77,0.00,,,0.00,SKWS110,2013-05-18 08:37:00,
2013-05-18 04:43:00,44.4,37.7,30.36,SW,225,0.0,0.0,77,0.00,,,0.00,SKWS110,2013-05-18 08:43:00,
2013-05-18 04:46:00,44.2,37.5,30.36,West,270,0.2,1.3,77,0.00,,,0.00,SKWS110,2013-05-18 08:46:00,
2013-05-18 04:52:00,43.7,37.3,30.36,NW,315,0.9,1.3,78,0.00,,,0.00,SKWS110,2013-05-18 08:52:00,
2013-05-18 04:55:00,43.5,37.1,30.36,NW,315,0.2,1.3,78,0.00,,,0.00,SKWS110,2013-05-18 08:55:00,
2013-05-18 04:58:00,43.3,37.0,30.36,NW,315,0.4,1.3,78,0.00,,,0.00,SKWS110,2013-05-18 08:58:00,
2013-05-18 05:04:00,43.0,36.6,30.37,NW,315,0.4,1.3,78,0.00,,,0.00,SKWS110,2013-05-18 09:04:00,
2013-05-18 05:10:00,42.8,36.4,30.37,NNW,337,0.0,0.0,78,0.00,,,0.00,SKWS110,2013-05-18 09:10:00,
2013-05-18 05:13:00,42.6,35.9,30.37,North,0,0.0,0.0,77,0.00,,,0.00,SKWS110,2013-05-18 09:13:00,
2013-05-18 05:16:00,42.4,35.8,30.37,NNW,337,0.0,0.0,77,0.00,,,0.00,SKWS110,2013-05-18 09:16:00,
2013-05-18 05:20:00,42.3,35.6,30.37,NNW,337,0.0,0.0,77,0.00,,,0.00,SKWS110,2013-05-18 09:20:00,
2013-05-18 05:23:00,42.1,35.4,30.37,NNW,337,0.0,0.0,77,0.00,,,0.00,SKWS110,2013-05-18 09:23:00,
2013-05-18 05:26:00,41.9,35.2,30.37,NNW,337,0.0,0.0,77,0.00,,,0.00,SKWS110,2013-05-18 09:26:00,
2013-05-18 05:29:00,41.7,35.0,30.37,NNW,337,0.0,0.0,77,0.00,,,0.00,SKWS110,2013-05-18 09:29:00,
2013-05-18 05:35:00,41.5,35.2,30.38,NNW,337,0.0,0.0,78,0.00,,,0.00,SKWS110,2013-05-18 09:35:00,
2013-05-18 05:38:00,41.4,35.0,30.38,NNE,22,0.0,0.0,78,0.00,,,0.00,SKWS110,2013-05-18 09:38:00,
2013-05-18 05:44:00,41.4,35.0,30.38,NNE,22,0.0,1.3,78,0.00,,,0.00,SKWS110,2013-05-18 09:44:00,
2013-05-18 05:50:00,41.4,35.0,30.38,NNE,22,0.0,0.0,78,0.00,,,0.00,SKWS110,2013-05-18 09:50:00,
2013-05-18 05:53:00,41.5,35.5,30.38,North,0,0.0,0.0,79,0.00,,,0.00,SKWS110,2013-05-18 09:53:00,
2013-05-18 05:56:00,41.5,35.5,30.38,North,0,0.0,0.0,79,0.00,,,0.00,SKWS110,2013-05-18 09:56:00,
2013-05-18 05:59:00,41.5,35.5,30.38,North,0,0.0,0.0,79,0.00,,,0.00,SKWS110,2013-05-18 09:59:00,
2013-05-18 06:02:00,41.7,35.7,30.38,NNW,337,0.0,0.0,79,0.00,,,0.00,SKWS110,2013-05-18 10:02:00,
2013-05-18 06:05:00,41.9,35.9,30.39,NW,315,0.0,0.0,79,0.00,,,0.00,SKWS110,2013-05-18 10:05:00,
2013-05-18 06:08:00,42.1,36.0,30.39,NW,315,0.0,0.0,79,0.00,,,0.00,SKWS110,2013-05-18 10:08:00,
2013-05-18 06:11:00,42.1,36.0,30.39,NW,315,0.0,0.0,79,0.00,,,0.00,SKWS110,2013-05-18 10:11:00,
2013-05-18 06:14:00,42.4,36.4,30.39,NNW,337,0.0,0.0,79,0.00,,,0.00,SKWS110,2013-05-18 10:14:00,
2013-05-18 06:17:00,42.8,36.8,30.39,NNW,337,0.0,0.0,79,0.00,,,0.00,SKWS110,2013-05-18 10:17:00,
2013-05-18 06:20:00,43.0,36.9,30.39,NNW,337,0.0,0.0,79,0.00,,,0.00,SKWS110,2013-05-18 10:20:00,
2013-05-18 06:23:00,43.5,37.5,30.39,NW,315,0.0,0.0,79,0.00,,,0.00,SKWS110,2013-05-18 10:23:00,
2013-05-18 06:29:00,44.2,38.2,30.40,NW,315,0.0,0.0,79,0.00,,,0.00,SKWS110,2013-05-18 10:29:00,
2013-05-18 06:32:00,44.6,38.5,30.40,ESE,112,0.0,0.0,79,0.00,,,0.00,SKWS110,2013-05-18 10:32:00,
2013-05-18 06:35:00,45.0,38.8,30.40,SE,135,0.0,0.0,79,0.00,,,0.00,SKWS110,2013-05-18 10:35:00,
2013-05-18 06:39:00,45.3,39.2,30.40,SE,135,0.0,0.0,79,0.00,,,0.00,SKWS110,2013-05-18 10:39:00,
2013-05-18 06:42:00,45.7,39.5,30.40,SE,135,0.0,0.0,79,0.00,,,0.00,SKWS110,2013-05-18 10:42:00,
2013-05-18 06:45:00,45.9,39.7,30.40,SSE,157,0.0,0.0,79,0.00,,,0.00,SKWS110,2013-05-18 10:45:00,
2013-05-18 06:48:00,46.4,40.2,30.40,South,180,0.0,0.0,79,0.00,,,0.00,SKWS110,2013-05-18 10:48:00,
2013-05-18 06:51:00,46.8,40.6,30.40,South,180,0.0,0.0,79,0.00,,,0.00,SKWS110,2013-05-18 10:51:00,
2013-05-18 06:54:00,47.3,41.5,30.40,South,180,0.0,0.0,80,0.00,,,0.00,SKWS110,2013-05-18 10:54:00,
2013-05-18 06:57:00,47.8,42.0,30.40,SSW,202,0.0,0.0,80,0.00,,,0.00,SKWS110,2013-05-18 10:57:00,
2013-05-18 07:00:00,48.0,42.2,30.40,SW,225,0.0,0.0,80,0.00,,,0.00,SKWS110,2013-05-18 11:00:00,
2013-05-18 07:03:00,48.6,42.3,30.40,WSW,247,0.2,0.2,79,0.00,,,0.00,SKWS110,2013-05-18 11:03:00,
2013-05-18 07:09:00,49.3,43.0,30.41,WSW,247,2.7,4.0,79,0.00,,,0.00,SKWS110,2013-05-18 11:09:00,
2013-05-18 07:12:00,49.6,43.1,30.41,WSW,247,4.0,5.4,78,0.00,,,0.00,SKWS110,2013-05-18 11:12:00,
2013-05-18 07:18:00,50.4,43.4,30.41,SW,225,4.0,6.9,77,0.00,,,0.00,SKWS110,2013-05-18 11:18:00,
2013-05-18 07:21:00,50.5,43.3,30.41,WSW,247,5.4,6.9,76,0.00,,,0.00,SKWS110,2013-05-18 11:21:00,
2013-05-18 07:24:00,50.7,43.4,30.41,WSW,247,4.2,5.4,76,0.00,,,0.00,SKWS110,2013-05-18 11:24:00,
2013-05-18 07:27:00,50.7,43.4,30.41,WSW,247,5.4,6.9,76,0.00,,,0.00,SKWS110,2013-05-18 11:27:00,
2013-05-18 07:30:00,51.1,43.4,30.41,WSW,247,4.7,5.4,75,0.00,,,0.00,SKWS110,2013-05-18 11:30:00,
2013-05-18 07:36:00,51.4,43.4,30.42,WSW,247,4.0,5.4,74,0.00,,,0.00,SKWS110,2013-05-18 11:36:00,
2013-05-18 07:39:00,51.6,43.6,30.42,SW,225,5.1,6.9,74,0.00,,,0.00,SKWS110,2013-05-18 11:39:00,
2013-05-18 07:42:00,51.8,43.4,30.42,SW,225,4.2,5.4,73,0.00,,,0.00,SKWS110,2013-05-18 11:42:00,
2013-05-18 07:48:00,52.2,43.8,30.42,SW,225,2.9,5.4,73,0.00,,,0.00,SKWS110,2013-05-18 11:48:00,
2013-05-18 07:51:00,52.3,43.6,30.42,SW,225,4.0,6.9,72,0.00,,,0.00,SKWS110,2013-05-18 11:51:00,
2013-05-18 07:54:00,52.5,43.8,30.42,West,270,4.7,6.9,72,0.00,,,0.00,SKWS110,2013-05-18 11:54:00,
2013-05-18 07:57:00,52.9,44.1,30.42,SW,225,4.0,4.0,72,0.00,,,0.00,SKWS110,2013-05-18 11:57:00,
2013-05-18 08:01:00,53.1,44.3,30.42,WSW,247,2.9,5.4,72,0.00,,,0.00,SKWS110,2013-05-18 12:01:00,
2013-05-18 08:04:00,53.4,45.0,30.42,West,270,2.9,4.0,73,0.00,,,0.00,SKWS110,2013-05-18 12:04:00,
2013-05-18 08:07:00,53.6,44.8,30.42,WNW,292,4.5,5.4,72,0.00,,,0.00,SKWS110,2013-05-18 12:07:00,
2013-05-18 08:10:00,53.8,44.6,30.43,WNW,292,2.5,5.4,71,0.00,,,0.00,SKWS110,2013-05-18 12:10:00,
2013-05-18 08:13:00,54.3,44.8,30.43,NNW,337,3.4,4.0,70,0.00,,,0.00,SKWS110,2013-05-18 12:13:00,
2013-05-18 08:16:00,54.5,44.9,30.43,WNW,292,4.0,4.0,70,0.00,,,0.00,SKWS110,2013-05-18 12:16:00,
2013-05-18 08:19:00,54.7,44.7,30.43,West,270,2.0,2.7,69,0.00,,,0.00,SKWS110,2013-05-18 12:19:00,
2013-05-18 08:22:00,55.0,45.1,30.43,West,270,2.2,4.0,69,0.00,,,0.00,SKWS110,2013-05-18 12:22:00,
2013-05-18 08:25:00,55.6,45.6,30.43,West,270,0.4,1.3,69,0.00,,,0.00,SKWS110,2013-05-18 12:25:00,
2013-05-18 08:28:00,55.8,45.4,30.43,NE,45,0.4,1.3,68,0.00,,,0.00,SKWS110,2013-05-18 12:28:00,
2013-05-18 08:31:00,55.8,45.0,30.43,NNW,337,0.4,2.7,67,0.00,,,0.00,SKWS110,2013-05-18 12:31:00,
2013-05-18 08:37:00,56.1,44.9,30.44,NW,315,1.8,1.8,66,0.00,,,0.00,SKWS110,2013-05-18 12:37:00,
2013-05-18 08:40:00,56.3,44.7,30.44,WNW,292,0.0,2.7,65,0.00,,,0.00,SKWS110,2013-05-18 12:40:00,
2013-05-18 08:43:00,56.5,45.3,30.44,WNW,292,0.0,0.0,66,0.00,,,0.00,SKWS110,2013-05-18 12:43:00,
2013-05-18 08:46:00,57.2,45.9,30.43,NNW,337,1.8,2.7,66,0.00,,,0.00,SKWS110,2013-05-18 12:46:00,
2013-05-18 08:52:00,57.7,46.0,30.43,WSW,247,1.1,2.7,65,0.00,,,0.00,SKWS110,2013-05-18 12:52:00,
2013-05-18 08:55:00,57.7,46.0,30.43,WSW,247,1.1,1.3,65,0.00,,,0.00,SKWS110,2013-05-18 12:55:00,
2013-05-18 09:01:00,58.6,46.1,30.43,NNW,337,1.3,1.3,63,0.00,,,0.00,SKWS110,2013-05-18 13:01:00,
2013-05-18 09:04:00,58.6,46.1,30.44,North,0,0.4,0.4,63,0.00,,,0.00,SKWS110,2013-05-18 13:04:00,
2013-05-18 09:07:00,58.8,46.2,30.43,NW,315,1.1,1.3,63,0.00,,,0.00,SKWS110,2013-05-18 13:07:00,
2013-05-18 09:10:00,59.4,46.8,30.43,West,270,1.3,1.3,63,0.00,,,0.00,SKWS110,2013-05-18 13:10:00,
2013-05-18 09:13:00,59.5,46.5,30.44,West,270,0.9,1.3,62,0.00,,,0.00,SKWS110,2013-05-18 13:13:00,
2013-05-18 09:20:00,59.9,46.8,30.44,WNW,292,0.4,1.3,62,0.00,,,0.00,SKWS110,2013-05-18 13:20:00,
2013-05-18 09:23:00,60.1,46.6,30.44,WNW,292,1.1,1.3,61,0.00,,,0.00,SKWS110,2013-05-18 13:23:00,
2013-05-18 09:26:00,60.1,46.6,30.43,North,0,0.2,1.3,61,0.00,,,0.00,SKWS110,2013-05-18 13:26:00,
2013-05-18 09:29:00,60.3,46.8,30.44,WSW,247,0.9,1.3,61,0.00,,,0.00,SKWS110,2013-05-18 13:29:00,
2013-05-18 09:32:00,60.8,47.3,30.44,NNE,22,1.1,1.3,61,0.00,,,0.00,SKWS110,2013-05-18 13:32:00,
2013-05-18 09:35:00,61.2,47.6,30.44,NE,45,0.4,1.3,61,0.00,,,0.00,SKWS110,2013-05-18 13:35:00,
2013-05-18 09:38:00,61.5,47.5,30.44,WNW,292,1.1,2.7,60,0.00,,,0.00,SKWS110,2013-05-18 13:38:00,
2013-05-18 09:41:00,61.5,47.0,30.43,NW,315,0.4,1.3,59,0.00,,,0.00,SKWS110,2013-05-18 13:41:00,
2013-05-18 09:44:00,61.5,47.0,30.44,WSW,247,1.1,2.7,59,0.00,,,0.00,SKWS110,2013-05-18 13:44:00,
2013-05-18 09:47:00,61.9,47.4,30.44,West,270,1.1,1.3,59,0.00,,,0.00,SKWS110,2013-05-18 13:47:00,
2013-05-18 09:50:00,62.2,47.7,30.43,NNW,337,0.4,1.3,59,0.00,,,0.00,SKWS110,2013-05-18 13:50:00,
2013-05-18 09:53:00,62.2,47.3,30.44,South,180,0.0,0.0,58,0.00,,,0.00,SKWS110,2013-05-18 13:53:00,
2013-05-18 09:59:00,63.3,48.7,30.43,SSW,202,0.9,2.7,59,0.00,,,0.00,SKWS110,2013-05-18 13:59:00,
2013-05-18 10:02:00,63.3,48.7,30.43,NW,315,0.4,1.3,59,0.00,,,0.00,SKWS110,2013-05-18 14:02:00,
2013-05-18 10:05:00,63.7,48.6,30.44,East,90,0.0,1.3,58,0.00,,,0.00,SKWS110,2013-05-18 14:05:00,
2013-05-18 10:11:00,64.0,48.0,30.44,ESE,112,3.4,3.4,56,0.00,,,0.00,SKWS110,2013-05-18 14:11:00,
2013-05-18 10:14:00,63.9,48.3,30.44,ENE,67,1.3,2.7,57,0.00,,,0.00,SKWS110,2013-05-18 14:14:00,
2013-05-18 10:17:00,64.0,47.5,30.44,WSW,247,0.0,2.7,55,0.00,,,0.00,SKWS110,2013-05-18 14:17:00,
2013-05-18 10:20:00,64.4,47.9,30.43,SSE,157,2.0,2.7,55,0.00,,,0.00,SKWS110,2013-05-18 14:20:00,
2013-05-18 10:23:00,64.4,47.9,30.43,SSW,202,3.4,5.4,55,0.00,,,0.00,SKWS110,2013-05-18 14:23:00,
2013-05-18 10:26:00,64.6,48.0,30.43,ENE,67,2.5,2.5,55,0.00,,,0.00,SKWS110,2013-05-18 14:26:00,
2013-05-18 10:29:00,64.8,48.7,30.44,SSE,157,1.1,1.3,56,0.00,,,0.00,SKWS110,2013-05-18 14:29:00,
2013-05-18 10:32:00,65.1,48.5,30.44,SE,135,1.3,2.7,55,0.00,,,0.00,SKWS110,2013-05-18 14:32:00,
2013-05-18 10:35:00,65.3,48.2,30.44,South,180,1.8,5.4,54,0.00,,,0.00,SKWS110,2013-05-18 14:35:00,
2013-05-18 10:38:00,65.5,48.4,30.44,ESE,112,1.6,2.7,54,0.00,,,0.00,SKWS110,2013-05-18 14:38:00,
2013-05-18 10:41:00,65.7,49.0,30.44,SE,135,1.8,2.7,55,0.00,,,0.00,SKWS110,2013-05-18 14:41:00,
2013-05-18 10:45:00,65.8,48.7,30.44,SSW,202,1.8,2.7,54,0.00,,,0.00,SKWS110,2013-05-18 14:45:00,
2013-05-18 10:48:00,66.0,48.9,30.44,SSE,157,2.2,2.7,54,0.00,,,0.00,SKWS110,2013-05-18 14:48:00,
2013-05-18 10:51:00,66.4,49.7,30.44,ESE,112,4.0,5.4,55,0.00,,,0.00,SKWS110,2013-05-18 14:51:00,
2013-05-18 10:54:00,66.6,49.4,30.44,SSE,157,1.3,2.7,54,0.00,,,0.00,SKWS110,2013-05-18 14:54:00,
2013-05-18 10:57:00,66.9,49.7,30.44,ESE,112,4.5,5.4,54,0.00,,,0.00,SKWS110,2013-05-18 14:57:00,
2013-05-18 11:00:00,66.9,49.2,30.43,South,180,2.5,2.7,53,0.00,,,0.00,SKWS110,2013-05-18 15:00:00,
2013-05-18 11:03:00,66.9,48.2,30.43,SW,225,0.7,1.3,51,0.00,,,0.00,SKWS110,2013-05-18 15:03:00,
2013-05-18 11:06:00,67.1,48.9,30.43,ESE,112,2.7,4.0,52,0.00,,,0.00,SKWS110,2013-05-18 15:06:00,
2013-05-18 11:09:00,67.1,48.4,30.43,East,90,2.9,4.0,51,0.00,,,0.00,SKWS110,2013-05-18 15:09:00,
2013-05-18 11:12:00,67.3,48.5,30.43,ESE,112,4.2,4.2,51,0.00,,,0.00,SKWS110,2013-05-18 15:12:00,
2013-05-18 11:18:00,67.6,48.9,30.43,SSE,157,4.0,5.4,51,0.00,,,0.00,SKWS110,2013-05-18 15:18:00,
2013-05-18 11:21:00,67.6,48.3,30.43,South,180,3.1,4.0,50,0.00,,,0.00,SKWS110,2013-05-18 15:21:00,
2013-05-18 11:24:00,67.6,48.3,30.43,South,180,3.1,4.0,50,0.00,,,0.00,SKWS110,2013-05-18 15:24:00,
2013-05-18 11:27:00,67.8,48.5,30.43,ESE,112,5.4,5.4,50,0.00,,,0.00,SKWS110,2013-05-18 15:27:00,
2013-05-18 11:30:00,68.0,49.2,30.43,East,90,3.4,5.4,51,0.00,,,0.00,SKWS110,2013-05-18 15:30:00,
2013-05-18 11:33:00,68.2,48.3,30.43,NE,45,0.7,2.7,49,0.00,,,0.00,SKWS110,2013-05-18 15:33:00,
2013-05-18 11:36:00,68.7,49.3,30.43,East,90,4.7,6.9,50,0.00,,,0.00,SKWS110,2013-05-18 15:36:00,
2013-05-18 11:39:00,68.7,48.8,30.42,SE,135,1.8,2.7,49,0.00,,,0.00,SKWS110,2013-05-18 15:39:00,
2013-05-18 11:42:00,69.1,48.6,30.42,South,180,3.4,3.4,48,0.00,,,0.00,SKWS110,2013-05-18 15:42:00,
2013-05-18 11:48:00,69.4,48.9,30.42,SE,135,3.1,5.4,48,0.00,,,0.00,SKWS110,2013-05-18 15:48:00,
2013-05-18 11:51:00,69.6,49.6,30.42,SSE,157,4.5,5.4,49,0.00,,,0.00,SKWS110,2013-05-18 15:51:00,
2013-05-18 11:54:00,70.0,49.9,30.42,SSE,157,7.2,7.6,49,0.00,,,0.00,SKWS110,2013-05-18 15:54:00,
2013-05-18 11:57:00,70.0,49.9,30.42,SSE,157,7.2,8.3,49,0.00,,,0.00,SKWS110,2013-05-18 15:57:00,
2013-05-18 12:04:00,70.2,49.0,30.42,SSE,157,3.4,4.0,47,0.00,,,0.00,SKWS110,2013-05-18 16:04:00,
2013-05-18 12:07:00,70.2,48.4,30.42,South,180,4.9,6.9,46,0.00,,,0.00,SKWS110,2013-05-18 16:07:00,
2013-05-18 12:10:00,70.3,48.6,30.42,SE,135,4.0,6.9,46,0.00,,,0.00,SKWS110,2013-05-18 16:10:00,
2013-05-18 12:16:00,70.7,48.3,30.42,SE,135,3.8,6.9,45,0.00,,,0.00,SKWS110,2013-05-18 16:16:00,
2013-05-18 12:19:00,70.9,47.3,30.42,SSE,157,4.9,5.4,43,0.00,,,0.00,SKWS110,2013-05-18 16:19:00,
2013-05-18 12:22:00,70.9,47.3,30.42,SE,135,4.0,5.4,43,0.00,,,0.00,SKWS110,2013-05-18 16:22:00,
2013-05-18 12:25:00,70.9,47.3,30.42,SE,135,5.4,6.9,43,0.00,,,0.00,SKWS110,2013-05-18 16:25:00,
2013-05-18 12:28:00,70.9,45.3,30.41,South,180,4.5,6.9,40,0.00,,,0.00,SKWS110,2013-05-18 16:28:00,
2013-05-18 12:31:00,71.1,46.2,30.41,SSE,157,5.4,6.9,41,0.00,,,0.00,SKWS110,2013-05-18 16:31:00,
2013-05-18 12:37:00,71.2,47.0,30.41,SE,135,6.9,8.3,42,0.00,,,0.00,SKWS110,2013-05-18 16:37:00,
2013-05-18 12:40:00,71.6,46.0,30.41,South,180,1.1,2.7,40,0.00,,,0.00,SKWS110,2013-05-18 16:40:00,
2013-05-18 12:46:00,71.6,43.9,30.41,SW,225,0.4,5.4,37,0.00,,,0.00,SKWS110,2013-05-18 16:46:00,
2013-05-18 12:49:00,71.6,44.6,30.41,WSW,247,1.8,4.0,38,0.00,,,0.00,SKWS110,2013-05-18 16:49:00,
2013-05-18 12:52:00,71.8,45.5,30.40,SSE,157,6.9,11.0,39,0.00,,,0.00,SKWS110,2013-05-18 16:52:00,
2013-05-18 12:55:00,72.0,46.3,30.40,SSE,157,3.8,6.9,40,0.00,,,0.00,SKWS110,2013-05-18 16:55:00,
2013-05-18 12:58:00,72.1,47.1,30.40,SSE,157,2.2,8.3,41,0.00,,,0.00,SKWS110,2013-05-18 16:58:00,
2013-05-18 13:01:00,72.3,46.6,30.40,SSE,157,7.6,9.6,40,0.00,,,0.00,SKWS110,2013-05-18 17:01:00,
2013-05-18 13:07:00,72.3,43.1,30.40,East,90,0.0,1.3,35,0.00,,,0.00,SKWS110,2013-05-18 17:07:00,
2013-05-18 13:10:00,72.3,43.1,30.40,SE,135,2.5,4.0,35,0.00,,,0.00,SKWS110,2013-05-18 17:10:00,
2013-05-18 13:16:00,72.3,41.6,30.40,SSW,202,1.1,5.4,33,0.00,,,0.00,SKWS110,2013-05-18 17:16:00,
2013-05-18 13:22:00,71.6,39.3,30.39,NE,45,1.1,5.8,31,0.00,,,0.00,SKWS110,2013-05-18 17:22:00,
2013-05-18 13:26:00,71.6,41.0,30.39,East,90,5.4,6.9,33,0.00,,,0.00,SKWS110,2013-05-18 17:26:00,
2013-05-18 13:29:00,71.6,41.0,30.39,NE,45,4.5,5.4,33,0.00,,,0.00,SKWS110,2013-05-18 17:29:00,
2013-05-18 13:32:00,71.6,42.5,30.39,South,180,1.3,2.7,35,0.00,,,0.00,SKWS110,2013-05-18 17:32:00,
2013-05-18 13:35:00,71.8,41.9,30.39,South,180,2.5,4.0,34,0.00,,,0.00,SKWS110,2013-05-18 17:35:00,
2013-05-18 13:38:00,72.3,43.1,30.39,SE,135,3.8,4.0,35,0.00,,,0.00,SKWS110,2013-05-18 17:38:00,
2013-05-18 13:41:00,72.5,43.3,30.39,NE,45,5.1,6.9,35,0.00,,,0.00,SKWS110,2013-05-18 17:41:00,
2013-05-18 13:44:00,72.3,44.6,30.38,SE,135,4.7,6.9,37,0.00,,,0.00,SKWS110,2013-05-18 17:44:00,
2013-05-18 13:47:00,72.3,45.3,30.38,SE,135,4.5,9.6,38,0.00,,,0.00,SKWS110,2013-05-18 17:47:00,
2013-05-18 13:50:00,72.5,45.4,30.38,SSE,157,2.9,5.4,38,0.00,,,0.00,SKWS110,2013-05-18 17:50:00,
2013-05-18 13:56:00,72.7,44.9,30.38,SE,135,5.4,6.9,37,0.00,,,0.00,SKWS110,2013-05-18 17:56:00,
2013-05-18 13:59:00,73.0,45.2,30.38,ESE,112,6.3,8.3,37,0.00,,,0.00,SKWS110,2013-05-18 17:59:00,
2013-05-18 14:02:00,73.0,43.8,30.38,SW,225,3.6,6.9,35,0.00,,,0.00,SKWS110,2013-05-18 18:02:00,
2013-05-18 14:05:00,73.0,42.2,30.38,SSW,202,4.2,5.4,33,0.00,,,0.00,SKWS110,2013-05-18 18:05:00,
2013-05-18 14:08:00,72.9,41.3,30.38,SW,225,2.9,4.0,32,0.00,,,0.00,SKWS110,2013-05-18 18:08:00,
2013-05-18 14:11:00,72.9,41.3,30.38,SSE,157,7.2,7.2,32,0.00,,,0.00,SKWS110,2013-05-18 18:11:00,
2013-05-18 14:17:00,72.9,42.8,30.38,ESE,112,3.8,3.8,34,0.00,,,0.00,SKWS110,2013-05-18 18:17:00,
2013-05-18 14:20:00,72.9,42.1,30.37,NNW,337,1.3,5.4,33,0.00,,,0.00,SKWS110,2013-05-18 18:20:00,
2013-05-18 14:23:00,72.7,41.1,30.37,NNW,337,5.4,9.6,32,0.00,,,0.00,SKWS110,2013-05-18 18:23:00,
2013-05-18 14:29:00,73.2,42.4,30.37,SSW,202,3.6,7.6,33,0.00,,,0.00,SKWS110,2013-05-18 18:29:00,
2013-05-18 14:32:00,73.4,41.7,30.37,South,180,3.6,4.0,32,0.00,,,0.00,SKWS110,2013-05-18 18:32:00,
2013-05-18 14:35:00,73.2,40.8,30.37,SW,225,4.2,6.3,31,0.00,,,0.00,SKWS110,2013-05-18 18:35:00,
2013-05-18 14:38:00,73.0,39.8,30.37,SSW,202,5.6,9.6,30,0.00,,,0.00,SKWS110,2013-05-18 18:38:00,
2013-05-18 14:41:00,73.0,40.6,30.37,SW,225,7.2,9.6,31,0.00,,,0.00,SKWS110,2013-05-18 18:41:00,
2013-05-18 14:47:00,72.9,39.6,30.37,SSW,202,5.4,9.6,30,0.00,,,0.00,SKWS110,2013-05-18 18:47:00,
2013-05-18 14:54:00,73.6,40.2,30.37,West,270,6.0,6.9,30,0.00,,,0.00,SKWS110,2013-05-18 18:54:00,
2013-05-18 14:57:00,73.6,40.2,30.37,SSW,202,3.1,4.0,30,0.00,,,0.00,SKWS110,2013-05-18 18:57:00,
2013-05-18 15:00:00,73.4,40.1,30.37,West,270,2.5,4.0,30,0.00,,,0.00,SKWS110,2013-05-18 19:00:00,
2013-05-18 15:06:00,73.4,40.1,30.37,SSW,202,4.2,6.9,30,0.00,,,0.00,SKWS110,2013-05-18 19:06:00,
2013-05-18 15:09:00,73.4,40.1,30.36,SSW,202,3.4,5.4,30,0.00,,,0.00,SKWS110,2013-05-18 19:09:00,
2013-05-18 15:12:00,73.4,40.1,30.36,WNW,292,1.1,1.3,30,0.00,,,0.00,SKWS110,2013-05-18 19:12:00,
2013-05-18 15:15:00,73.6,41.1,30.36,NE,45,1.8,4.0,31,0.00,,,0.00,SKWS110,2013-05-18 19:15:00,
2013-05-18 15:18:00,73.8,42.0,30.36,WSW,247,4.0,4.0,32,0.00,,,0.00,SKWS110,2013-05-18 19:18:00,
2013-05-18 15:21:00,74.1,42.4,30.36,NW,315,4.7,6.9,32,0.00,,,0.00,SKWS110,2013-05-18 19:21:00,
2013-05-18 15:24:00,74.7,42.0,30.36,NW,315,0.4,2.7,31,0.00,,,0.00,SKWS110,2013-05-18 19:24:00,
2013-05-18 15:27:00,74.7,42.0,30.36,NW,315,0.4,1.3,31,0.00,,,0.00,SKWS110,2013-05-18 19:27:00,
2013-05-18 15:30:00,74.8,41.3,30.36,ENE,67,1.3,1.3,30,0.00,,,0.00,SKWS110,2013-05-18 19:30:00,
2013-05-18 15:33:00,74.7,41.2,30.36,SW,225,0.4,1.3,30,0.00,,,0.00,SKWS110,2013-05-18 19:33:00,
2013-05-18 15:36:00,74.8,42.2,30.35,ESE,112,3.4,4.0,31,0.00,,,0.00,SKWS110,2013-05-18 19:36:00,
2013-05-18 15:42:00,75.0,43.1,30.35,South,180,2.5,5.4,32,0.00,,,0.00,SKWS110,2013-05-18 19:42:00,
2013-05-18 15:48:00,75.2,42.5,30.35,SW,225,4.7,6.9,31,0.00,,,0.00,SKWS110,2013-05-18 19:48:00,
2013-05-18 15:51:00,75.4,41.8,30.35,SSE,157,3.8,4.0,30,0.00,,,0.00,SKWS110,2013-05-18 19:51:00,
2013-05-18 15:54:00,75.2,41.6,30.35,SSE,157,1.1,8.3,30,0.00,,,0.00,SKWS110,2013-05-18 19:54:00,
2013-05-18 15:57:00,75.2,43.3,30.35,SE,135,4.9,6.9,32,0.00,,,0.00,SKWS110,2013-05-18 19:57:00,
2013-05-18 16:00:00,75.0,43.1,30.35,SSE,157,1.8,6.9,32,0.00,,,0.00,SKWS110,2013-05-18 20:00:00,
2013-05-18 16:03:00,75.0,41.5,30.35,SW,225,2.9,4.0,30,0.00,,,0.00,SKWS110,2013-05-18 20:03:00,
2013-05-18 16:06:00,74.7,40.3,30.35,SSW,202,4.0,6.9,29,0.00,,,0.00,SKWS110,2013-05-18 20:06:00,
2013-05-18 16:09:00,74.5,40.1,30.35,West,270,2.2,4.0,29,0.00,,,0.00,SKWS110,2013-05-18 20:09:00,
2013-05-18 16:13:00,74.3,40.0,30.35,SSW,202,1.8,4.0,29,0.00,,,0.00,SKWS110,2013-05-18 20:13:00,
2013-05-18 16:16:00,74.3,40.0,30.35,SW,225,2.5,4.0,29,0.00,,,0.00,SKWS110,2013-05-18 20:16:00,
2013-05-18 16:19:00,74.3,40.0,30.35,WSW,247,2.9,4.0,29,0.00,,,0.00,SKWS110,2013-05-18 20:19:00,
2013-05-18 16:22:00,74.1,39.8,30.35,SW,225,1.6,2.7,29,0.00,,,0.00,SKWS110,2013-05-18 20:22:00,
2013-05-18 16:28:00,74.3,40.8,30.35,ESE,112,3.4,8.3,30,0.00,,,0.00,SKWS110,2013-05-18 20:28:00,
2013-05-18 16:31:00,74.3,40.8,30.35,East,90,1.3,2.7,30,0.00,,,0.00,SKWS110,2013-05-18 20:31:00,
2013-05-18 16:34:00,74.1,40.7,30.35,SE,135,1.8,2.7,30,0.00,,,0.00,SKWS110,2013-05-18 20:34:00,
2013-05-18 16:40:00,74.5,41.0,30.35,SSW,202,1.8,5.4,30,0.00,,,0.00,SKWS110,2013-05-18 20:40:00,
2013-05-18 16:43:00,74.3,40.0,30.35,NNW,337,0.4,1.3,29,0.00,,,0.00,SKWS110,2013-05-18 20:43:00,
2013-05-18 16:46:00,74.7,41.2,30.34,SSE,157,0.0,2.7,30,0.00,,,0.00,SKWS110,2013-05-18 20:46:00,
2013-05-18 16:52:00,75.0,40.6,30.35,NE,45,2.5,2.5,29,0.00,,,0.00,SKWS110,2013-05-18 20:52:00,
2013-05-18 16:55:00,75.2,40.8,30.35,NNE,22,3.4,4.0,29,0.00,,,0.00,SKWS110,2013-05-18 20:55:00,
2013-05-18 16:58:00,74.8,40.4,30.35,NNE,22,0.2,4.0,29,0.00,,,0.00,SKWS110,2013-05-18 20:58:00,
2013-05-18 17:01:00,75.0,40.6,30.35,SW,225,0.4,1.3,29,0.00,,,0.00,SKWS110,2013-05-18 21:01:00,
2013-05-18 17:04:00,74.7,42.0,30.35,NE,45,1.1,1.8,31,0.00,,,0.00,SKWS110,2013-05-18 21:04:00,
2013-05-18 17:07:00,74.7,42.0,30.35,ENE,67,0.7,1.3,31,0.00,,,0.00,SKWS110,2013-05-18 21:07:00,
2013-05-18 17:10:00,74.5,41.0,30.35,SE,135,2.7,4.0,30,0.00,,,0.00,SKWS110,2013-05-18 21:10:00,
2013-05-18 17:16:00,73.2,39.9,30.35,East,90,1.6,1.6,30,0.00,,,0.00,SKWS110,2013-05-18 21:16:00,
2013-05-18 17:19:00,73.2,40.8,30.35,SSE,157,1.6,3.4,31,0.00,,,0.00,SKWS110,2013-05-18 21:19:00,
2013-05-18 17:22:00,73.4,41.7,30.35,ESE,112,1.1,2.7,32,0.00,,,0.00,SKWS110,2013-05-18 21:22:00,
2013-05-18 17:25:00,73.4,42.5,30.35,ESE,112,2.0,2.7,33,0.00,,,0.00,SKWS110,2013-05-18 21:25:00,
2013-05-18 17:28:00,73.4,42.5,30.34,East,90,0.7,2.7,33,0.00,,,0.00,SKWS110,2013-05-18 21:28:00,
2013-05-18 17:31:00,73.4,41.7,30.34,East,90,3.8,5.4,32,0.00,,,0.00,SKWS110,2013-05-18 21:31:00,
2013-05-18 17:38:00,74.1,42.4,30.34,NE,45,0.7,2.7,32,0.00,,,0.00,SKWS110,2013-05-18 21:38:00,
2013-05-18 17:41:00,74.1,42.4,30.34,NE,45,0.7,2.7,32,0.00,,,0.00,SKWS110,2013-05-18 21:41:00,
2013-05-18 17:44:00,75.4,42.6,30.34,SE,135,0.7,2.7,31,0.00,,,0.00,SKWS110,2013-05-18 21:44:00,
2013-05-18 17:47:00,75.7,42.9,30.34,SSE,157,1.6,2.7,31,0.00,,,0.00,SKWS110,2013-05-18 21:47:00,
2013-05-18 17:50:00,75.7,42.1,30.34,ENE,67,2.2,2.7,30,0.00,,,0.00,SKWS110,2013-05-18 21:50:00,
2013-05-18 17:56:00,75.7,42.9,30.34,NE,45,0.9,2.7,31,0.00,,,0.00,SKWS110,2013-05-18 21:56:00,
2013-05-18 17:59:00,75.9,42.2,30.34,NNE,22,0.2,1.3,30,0.00,,,0.00,SKWS110,2013-05-18 21:59:00,
2013-05-18 18:02:00,76.1,42.4,30.34,NNE,22,0.9,1.3,30,0.00,,,0.00,SKWS110,2013-05-18 22:02:00,
2013-05-18 18:05:00,76.6,42.0,30.34,SE,135,2.0,2.7,29,0.00,,,0.00,SKWS110,2013-05-18 22:05:00,
2013-05-18 18:08:00,76.6,42.0,30.34,SE,135,2.0,2.7,29,0.00,,,0.00,SKWS110,2013-05-18 22:08:00,
2013-05-18 18:14:00,77.4,43.5,30.34,SSE,157,0.4,1.3,30,0.00,,,0.00,SKWS110,2013-05-18 22:14:00,
2013-05-18 18:17:00,77.4,43.5,30.34,SSE,157,0.4,1.3,30,0.00,,,0.00,SKWS110,2013-05-18 22:17:00,
2013-05-18 18:20:00,76.8,43.0,30.34,SSE,157,0.4,2.7,30,0.00,,,0.00,SKWS110,2013-05-18 22:20:00,
2013-05-18 18:23:00,77.0,44.0,30.34,SE,135,2.0,2.0,31,0.00,,,0.00,SKWS110,2013-05-18 22:23:00,
2013-05-18 18:26:00,77.2,44.2,30.34,SE,135,4.0,4.0,31,0.00,,,0.00,SKWS110,2013-05-18 22:26:00,
2013-05-18 18:32:00,77.4,44.3,30.34,SE,135,1.1,1.3,31,0.00,,,0.00,SKWS110,2013-05-18 22:32:00,
2013-05-18 18:38:00,77.5,42.8,30.34,SSE,157,0.7,1.3,29,0.00,,,0.00,SKWS110,2013-05-18 22:38:00,
2013-05-18 18:41:00,77.4,43.5,30.34,South,180,0.7,2.7,30,0.00,,,0.00,SKWS110,2013-05-18 22:41:00,
2013-05-18 18:47:00,76.6,42.9,30.34,SE,135,3.4,4.0,30,0.00,,,0.00,SKWS110,2013-05-18 22:47:00,
2013-05-18 18:50:00,75.0,42.3,30.34,SSE,157,2.0,2.7,31,0.00,,,0.00,SKWS110,2013-05-18 22:50:00,
2013-05-18 18:53:00,74.8,42.2,30.35,SE,135,1.3,1.3,31,0.00,,,0.00,SKWS110,2013-05-18 22:53:00,
2013-05-18 18:56:00,74.5,42.7,30.35,SE,135,1.8,2.7,32,0.00,,,0.00,SKWS110,2013-05-18 22:56:00,
2013-05-18 18:59:00,74.7,42.8,30.34,SE,135,0.9,1.3,32,0.00,,,0.00,SKWS110,2013-05-18 22:59:00,
2013-05-18 19:03:00,74.7,42.8,30.34,SE,135,1.3,2.7,32,0.00,,,0.00,SKWS110,2013-05-18 23:03:00,
2013-05-18 19:06:00,74.3,42.5,30.34,SE,135,0.9,1.3,32,0.00,,,0.00,SKWS110,2013-05-18 23:06:00,
2013-05-18 19:09:00,73.8,42.0,30.34,SE,135,1.6,2.7,32,0.00,,,0.00,SKWS110,2013-05-18 23:09:00,
2013-05-18 19:15:00,73.0,41.4,30.35,ESE,112,0.4,1.3,32,0.00,,,0.00,SKWS110,2013-05-18 23:15:00,
2013-05-18 19:18:00,72.7,41.9,30.34,SE,135,0.9,1.3,33,0.00,,,0.00,SKWS110,2013-05-18 23:18:00,
2013-05-18 19:21:00,72.1,41.4,30.34,East,90,1.1,2.7,33,0.00,,,0.00,SKWS110,2013-05-18 23:21:00,
2013-05-18 19:24:00,72.1,41.4,30.35,East,90,1.1,2.7,33,0.00,,,0.00,SKWS110,2013-05-18 23:24:00,
2013-05-18 19:27:00,70.7,41.0,30.34,ESE,112,0.7,1.3,34,0.00,,,0.00,SKWS110,2013-05-18 23:27:00,
2013-05-18 19:30:00,70.2,40.5,30.34,ESE,112,0.9,1.3,34,0.00,,,0.00,SKWS110,2013-05-18 23:30:00,
2013-05-18 19:33:00,70.0,40.3,30.35,East,90,0.7,1.3,34,0.00,,,0.00,SKWS110,2013-05-18 23:33:00,
2013-05-18 19:36:00,68.9,40.1,30.35,ESE,112,0.9,1.3,35,0.00,,,0.00,SKWS110,2013-05-18 23:36:00,
2013-05-18 19:42:00,68.0,40.0,30.34,ESE,112,0.9,2.7,36,0.00,,,0.00,SKWS110,2013-05-18 23:42:00,
2013-05-18 19:45:00,67.3,40.1,30.34,SE,135,1.3,2.7,37,0.00,,,0.00,SKWS110,2013-05-18 23:45:00,
2013-05-18 19:48:00,67.1,40.0,30.34,ESE,112,1.8,2.7,37,0.00,,,0.00,SKWS110,2013-05-18 23:48:00,
2013-05-18 19:51:00,66.6,38.8,30.34,East,90,0.9,1.3,36,0.00,,,0.00,SKWS110,2013-05-18 23:51:00,
2013-05-18 19:54:00,66.2,39.2,30.34,ENE,67,1.1,1.3,37,0.00,,,0.00,SKWS110,2013-05-18 23:54:00,
2013-05-18 19:57:00,66.0,39.0,30.34,ENE,67,1.1,2.7,37,0.00,,,0.00,SKWS110,2013-05-18 23:57:00,
2013-05-18 20:00:00,65.5,38.5,30.34,ENE,67,0.4,1.3,37,0.00,,,0.00,SKWS110,2013-05-19 00:00:00,
2013-05-18 20:06:00,64.8,38.6,30.34,East,90,1.6,2.7,38,0.00,,,0.00,SKWS110,2013-05-19 00:06:00,
2013-05-18 20:09:00,64.8,38.6,30.34,East,90,1.6,2.7,38,0.00,,,0.00,SKWS110,2013-05-19 00:09:00,
2013-05-18 20:12:00,63.9,38.4,30.34,East,90,2.0,2.0,39,0.00,,,0.00,SKWS110,2013-05-19 00:12:00,
2013-05-18 20:15:00,63.5,38.1,30.34,NE,45,1.3,2.7,39,0.00,,,0.00,SKWS110,2013-05-19 00:15:00,
2013-05-18 20:18:00,63.3,37.9,30.34,ENE,67,1.1,1.3,39,0.00,,,0.00,SKWS110,2013-05-19 00:18:00,
2013-05-18 20:22:00,63.0,37.6,30.34,NNE,22,0.4,1.3,39,0.00,,,0.00,SKWS110,2013-05-19 00:22:00,
2013-05-18 20:28:00,62.2,37.6,30.34,ENE,67,0.7,1.3,40,0.00,,,0.00,SKWS110,2013-05-19 00:28:00,
2013-05-18 20:31:00,61.7,37.1,30.34,East,90,1.1,1.3,40,0.00,,,0.00,SKWS110,2013-05-19 00:31:00,
2013-05-18 20:37:00,60.8,37.0,30.35,SSE,157,2.9,4.0,41,0.00,,,0.00,SKWS110,2013-05-19 00:37:00,
2013-05-18 20:40:00,60.8,37.0,30.34,SSE,157,0.9,2.7,41,0.00,,,0.00,SKWS110,2013-05-19 00:40:00,
2013-05-18 20:43:00,60.1,36.9,30.35,East,90,1.6,2.7,42,0.00,,,0.00,SKWS110,2013-05-19 00:43:00,
2013-05-18 20:49:00,59.7,36.6,30.35,East,90,1.3,2.7,42,0.00,,,0.00,SKWS110,2013-05-19 00:49:00,
2013-05-18 20:52:00,59.4,36.9,30.35,SE,135,0.7,1.3,43,0.00,,,0.00,SKWS110,2013-05-19 00:52:00,
2013-05-18 20:58:00,58.8,36.4,30.35,ESE,112,0.4,1.3,43,0.00,,,0.00,SKWS110,2013-05-19 00:58:00,
2013-05-18 21:01:00,58.6,36.8,30.34,SSE,157,0.2,1.3,44,0.00,,,0.00,SKWS110,2013-05-19 01:01:00,
2013-05-18 21:04:00,58.3,37.0,30.35,SSE,157,0.4,1.3,45,0.00,,,0.00,SKWS110,2013-05-19 01:04:00,
2013-05-18 21:07:00,58.1,36.9,30.35,SSW,202,0.4,1.3,45,0.00,,,0.00,SKWS110,2013-05-19 01:07:00,
2013-05-18 21:13:00,57.6,36.9,30.35,SSE,157,0.4,1.3,46,0.00,,,0.00,SKWS110,2013-05-19 01:13:00,
2013-05-18 21:19:00,57.4,36.8,30.34,SSE,157,0.7,1.3,46,0.00,,,0.00,SKWS110,2013-05-19 01:19:00,
2013-05-18 21:22:00,57.0,36.5,30.34,ESE,112,0.9,1.3,46,0.00,,,0.00,SKWS110,2013-05-19 01:22:00,
2013-05-18 21:25:00,56.8,36.3,30.34,ESE,112,0.4,1.3,46,0.00,,,0.00,SKWS110,2013-05-19 01:25:00,
2013-05-18 21:31:00,56.3,36.3,30.34,SSE,157,0.0,0.0,47,0.00,,,0.00,SKWS110,2013-05-19 01:31:00,
2013-05-18 21:34:00,56.3,36.3,30.35,SSE,157,0.0,0.0,47,0.00,,,0.00,SKWS110,2013-05-19 01:34:00,
2013-05-18 21:37:00,55.9,36.0,30.35,SSE,157,0.0,0.0,47,0.00,,,0.00,SKWS110,2013-05-19 01:37:00,
2013-05-18 21:40:00,55.6,36.2,30.35,SSE,157,0.2,1.3,48,0.00,,,0.00,SKWS110,2013-05-19 01:40:00,
2013-05-18 21:43:00,55.4,36.6,30.35,SSE,157,0.0,0.0,49,0.00,,,0.00,SKWS110,2013-05-19 01:43:00,
2013-05-18 21:47:00,55.4,36.6,30.35,SSE,157,0.0,0.0,49,0.00,,,0.00,SKWS110,2013-05-19 01:47:00,
2013-05-18 21:50:00,55.2,36.9,30.35,SSE,157,0.0,0.0,50,0.00,,,0.00,SKWS110,2013-05-19 01:50:00,
2013-05-18 21:53:00,55.0,36.7,30.35,SSE,157,0.0,0.0,50,0.00,,,0.00,SKWS110,2013-05-19 01:53:00,
2013-05-18 21:56:00,54.9,36.6,30.35,East,90,0.0,0.0,50,0.00,,,0.00,SKWS110,2013-05-19 01:56:00,
2013-05-18 22:02:00,54.3,36.1,30.35,NE,45,0.0,0.0,50,0.00,,,0.00,SKWS110,2013-05-19 02:02:00,
2013-05-18 22:08:00,54.1,36.4,30.35,NE,45,0.2,1.3,51,0.00,,,0.00,SKWS110,2013-05-19 02:08:00,
2013-05-18 22:11:00,54.1,36.4,30.35,NNE,22,0.4,1.3,51,0.00,,,0.00,SKWS110,2013-05-19 02:11:00,
2013-05-18 22:17:00,54.0,36.7,30.34,NE,45,0.2,1.3,52,0.00,,,0.00,SKWS110,2013-05-19 02:17:00,
2013-05-18 22:20:00,53.8,36.6,30.35,NE,45,0.2,1.3,52,0.00,,,0.00,SKWS110,2013-05-19 02:20:00,
2013-05-18 22:26:00,53.6,36.4,30.34,NE,45,0.0,0.0,52,0.00,,,0.00,SKWS110,2013-05-19 02:26:00,
2013-05-18 22:29:00,53.2,36.5,30.35,SE,135,0.0,0.0,53,0.00,,,0.00,SKWS110,2013-05-19 02:29:00,
2013-05-18 22:32:00,52.9,36.7,30.34,SE,135,0.0,0.0,54,0.00,,,0.00,SKWS110,2013-05-19 02:32:00,
2013-05-18 22:35:00,52.9,36.7,30.34,SE,135,0.0,0.0,54,0.00,,,0.00,SKWS110,2013-05-19 02:35:00,
2013-05-18 22:38:00,52.2,36.5,30.34,SSE,157,0.0,0.0,55,0.00,,,0.00,SKWS110,2013-05-19 02:38:00,
2013-05-18 22:41:00,52.2,36.9,30.34,SSE,157,0.0,0.0,56,0.00,,,0.00,SKWS110,2013-05-19 02:41:00,
2013-05-18 22:44:00,51.8,37.1,30.34,NE,45,0.0,0.0,57,0.00,,,0.00,SKWS110,2013-05-19 02:44:00,
2013-05-18 22:47:00,51.6,37.3,30.34,North,0,0.0,0.0,58,0.00,,,0.00,SKWS110,2013-05-19 02:47:00,
2013-05-18 22:50:00,51.4,37.2,30.34,North,0,0.0,0.0,58,0.00,,,0.00,SKWS110,2013-05-19 02:50:00,
2013-05-18 22:53:00,51.4,37.2,30.34,North,0,0.0,0.0,58,0.00,,,0.00,SKWS110,2013-05-19 02:53:00,
2013-05-18 22:59:00,51.1,36.8,30.34,North,0,0.0,0.0,58,0.00,,,0.00,SKWS110,2013-05-19 02:59:00,
2013-05-18 23:05:00,50.7,36.5,30.34,North,0,0.0,0.0,58,0.00,,,0.00,SKWS110,2013-05-19 03:05:00,
2013-05-18 23:09:00,50.5,36.3,30.34,North,0,0.0,0.0,58,0.00,,,0.00,SKWS110,2013-05-19 03:09:00,
2013-05-18 23:15:00,50.0,37.1,30.34,NNE,22,0.0,0.0,61,0.00,,,0.00,SKWS110,2013-05-19 03:15:00,
2013-05-18 23:18:00,50.0,36.7,30.34,NNE,22,0.0,1.3,60,0.00,,,0.00,SKWS110,2013-05-19 03:18:00,
2013-05-18 23:21:00,49.8,36.5,30.34,NNE,22,0.0,0.0,60,0.00,,,0.00,SKWS110,2013-05-19 03:21:00,
2013-05-18 23:24:00,49.6,36.3,30.34,NNE,22,0.0,0.0,60,0.00,,,0.00,SKWS110,2013-05-19 03:24:00,
2013-05-18 23:27:00,49.5,36.6,30.34,NNE,22,0.0,0.0,61,0.00,,,0.00,SKWS110,2013-05-19 03:27:00,
2013-05-18 23:30:00,49.5,36.6,30.34,NNE,22,0.0,0.0,61,0.00,,,0.00,SKWS110,2013-05-19 03:30:00,
2013-05-18 23:33:00,49.3,36.4,30.34,NE,45,0.2,1.3,61,0.00,,,0.00,SKWS110,2013-05-19 03:33:00,
2013-05-18 23:36:00,49.1,36.2,30.34,NE,45,0.2,1.3,61,0.00,,,0.00,SKWS110,2013-05-19 03:36:00,
2013-05-18 23:39:00,48.9,36.1,30.34,NNE,22,0.0,1.3,61,0.00,,,0.00,SKWS110,2013-05-19 03:39:00,
2013-05-18 23:42:00,48.9,36.5,30.34,NNE,22,0.0,0.0,62,0.00,,,0.00,SKWS110,2013-05-19 03:42:00,
2013-05-18 23:45:00,48.7,35.9,30.34,NNE,22,0.0,0.0,61,0.00,,,0.00,SKWS110,2013-05-19 03:45:00,
2013-05-18 23:48:00,48.6,35.7,30.34,East,90,0.0,0.0,61,0.00,,,0.00,SKWS110,2013-05-19 03:48:00,
2013-05-18 23:51:00,48.6,36.1,30.34,East,90,0.0,0.0,62,0.00,,,0.00,SKWS110,2013-05-19 03:51:00,
2013-05-18 23:57:00,48.2,36.2,30.34,NE,45,0.0,0.0,63,0.00,,,0.00,SKWS110,2013-05-19 03:57:00,